Weather in Novol'vovsk

Russia / Tula Oblast     53°55′22″N   38°47′13″E
temp.,
°C
wind,
m/s
gust,
m/s
humid.,
%
clouds,
%
prec.,
mm/h
press.,
hPa
HPBL,
m
11 may, tue
tue1100:00+7nne61584100 0.0 1024408
03:00+6nne6159023 0.0 1023339
06:00+7nne7159096 0.0 1023379
09:00+12ne8127929 0.0 1023503
12:00+17ene7107073 0.0 10231049
15:00+17ene797583 0.5 10231137
18:00+14se5108295 1.1 1024833
21:00+11ese36876 1.1 1026181
12 may, wed
wed1200:00+8ese36892 0.0 1027126
03:00+7se22880 0.0 102721
06:00+8ene23855 0.0 102791
09:00+11ene5779100 0.2 1026543
12:00+9nnw4795100 2.3 1023320
15:00+9wsw2398100 8.4 1021156
18:00+11se23887 2.1 1020332
21:00+8ese359534 2.1 102194
13 may, thu
thu1300:00+7e389769 0.0 1021169
03:00+8e41096100 0.0 1020185
06:00+8ese379589 0.0 1020188
09:00+13e3485100 0.1 1018407
12:00+12e348991 6.8 1017253
15:00+17sse456940 6.8 10161265
18:00+16se46815 0.4 1016411
21:00+12sse369459 1.4 1017109
14 may, fri
fri1400:00+11sse3393100 0.1 101735
03:00+11sse229273 0.1 101823
06:00+12ese3692100 0.0 1018134
09:00+15e4109089 0.0 1017323
12:00+21se7107444 0.2 1016884
15:00+23se6106896 0.7 10141520
18:00+22se61174100 0.6 1013545
21:00+18se41390100 5.7 1012282
15 may, sat
sat1500:00+15e489379 3.7 1011131
03:00+15ese3996100 4.7 1011185
06:00+15nne3797100 5.6 1011225
09:00+16se2796100 9.9 1011348
12:00+20sse71080100 0.5 10101104
15:00+22s7970100 2.5 10101383
18:00+19ssw5979100 1.4 1010534
21:00+15ssw34900 2.8 101165